[[{"header":{"parameterUnit":"m.s-1","parameterCategory":1,"la1":30.2991,"la2":30.254,"lo1":-89.0895,"lo2":-89.0444,"dy":0.0017,"dx":0.0017,"nx":28,"ny":28,"refTime":"2025-07-29T09:00:00:Z","depth":0,"parameterNumber":2,"parameterNumberName":"U-component_of_WINDS"},"data":[0,0,0,0,0,0,0,0,0,0,0,0,0,0,0,0,0,0,0,0,0,0,0,0,0,0,0,0,0,0,0,0,0,0,0,0,0,0,0,0,0,0,0,0,0,0,0,0,0,0,0,0,0,0,0,0,0,0,1.5106,1.5106,0,1.5068,1.5067,1.5067,1.4952,1.4949,1.4947,1.4944,1.4913,1.4915,1.4916,0,0,0,0,0,0,0,0,0,0,0,0,0,1.5084,1.5085,1.5106,1.5106,1.5105,1.5068,1.5067,1.5067,1.4952,1.4949,1.4946,1.4943,1.4913,1.4914,1.4916,0,0,0,0,0,0,0,0,0,0,0,0,0,1.5075,1.5086,1.5106,1.5043,1.5037,1.5068,1.5067,1.5067,1.4953,1.4949,1.4945,1.4942,1.4912,1.4914,1.4916,1.5008,0,0,1.4924,1.4925,0,0,0,0,0,0,0,0,1.5076,1.5076,1.5053,1.5048,1.5041,1.501,1.5048,1.5047,1.4954,1.4985,1.4944,1.494,1.4949,1.4948,1.495,1.5006,1.5005,1.4924,1.4925,1.4926,1.4927,0,0,0,0,0,0,0,1.5077,1.5077,1.5091,1.5053,1.5045,1.5018,1.5013,1.5048,1.4989,1.4982,1.4974,1.497,1.4945,1.4948,1.4948,1.5004,1.4924,1.4926,1.4927,1.4928,1.513,1.5134,0,0,0,0,0,0,1.5085,1.5078,1.5092,1.509,1.5049,1.5022,1.5016,1.5024,1.4989,1.4979,1.4974,1.4965,1.4946,1.4946,1.4947,1.5048,1.4926,1.4928,1.493,1.5126,1.5131,1.5136,0,0,0,0,0,0,1.5085,1.5088,1.5094,1.5082,1.508,1.5026,1.5037,1.5026,1.5028,1.4982,1.4972,1.4987,1.4943,1.4943,1.4992,1.5046,1.4929,1.4932,1.5122,1.5128,1.5133,1.5254,0,0,0,0,0,0,1.5085,1.5088,1.5121,1.5083,1.5081,1.5139,1.504,1.5028,1.5031,1.502,1.4991,1.4983,1.494,1.4989,1.4994,1.5047,1.4933,1.5117,1.5125,1.5132,1.5245,1.5264,1.5279,0,0,0,0,0,1.5085,1.5159,1.5124,1.5126,1.5121,1.5142,1.5141,1.5087,1.5036,1.5069,1.5039,1.4984,1.5039,1.4995,1.5,1.5054,1.5113,1.5122,1.5131,1.5238,1.526,1.5279,0,0,0,0,0,0,1.5209,1.5153,1.5113,1.5177,1.5165,1.5123,1.5163,1.5113,1.5117,1.5107,1.5042,1.5037,1.5094,1.5079,1.5031,1.5139,1.5067,1.5077,1.5146,1.5167,1.5184,1.5186,1.4935,0,0,0,0,0,1.5243,1.5262,1.5214,1.5275,1.527,1.5218,1.5225,1.5184,1.517,1.5165,1.5139,1.5129,1.5143,1.5155,1.5166,1.5243,1.5234,1.5282,1.5299,1.5313,1.5323,1.536,1.538,1.5165,1.5165,1.5165,0,0,1.5315,1.5287,1.5304,1.5299,1.5285,1.5307,1.5215,1.5244,1.526,1.517,1.5213,1.5194,1.5178,1.524,1.5267,1.523,1.538,1.5325,1.5336,1.5338,1.5371,1.5391,1.5409,1.5171,1.517,1.5169,0,0,1.5457,1.5438,1.5485,1.5472,1.545,1.5414,1.5426,1.539,1.5372,1.5414,1.5346,1.5366,1.5393,1.5384,1.5383,1.5518,1.5467,1.5524,1.5613,1.565,1.5666,1.5681,1.5727,1.5745,1.5534,1.5534,1.5534,0,1.555,1.5579,1.5517,1.5548,1.5548,1.5464,1.5512,1.5503,1.5487,1.5489,1.5448,1.5477,1.5461,1.5519,1.5551,1.5554,1.5565,1.5527,1.5669,1.5683,1.5696,1.5739,1.5757,1.5541,1.554,1.554,1.5539,0,1.5693,1.5714,1.5755,1.5738,1.5742,1.5782,1.5727,1.5739,1.5698,1.5667,1.5709,1.5687,1.569,1.5701,1.5663,1.5753,1.573,1.568,1.5606,1.5724,1.5763,1.578,1.5551,1.5548,1.5546,1.5545,0,0,1.5912,1.5858,1.5874,1.5863,1.5832,1.5848,1.5884,1.5884,1.5895,1.5887,1.5915,1.5939,1.589,1.5889,1.5849,1.5881,1.5987,1.5826,1.5825,1.5855,1.6082,1.6119,1.614,1.5953,1.5956,1.5958,1.6083,0,1.6044,1.61,1.6044,1.6111,1.6129,1.6049,1.608,1.6065,1.6037,1.6049,1.6019,1.6035,1.5972,1.597,1.5999,1.5968,1.6032,1.5959,1.5979,1.598,1.5983,1.616,1.62,1.6319,1.6098,1.6101,1.6103,0,1.6206,1.6201,1.6269,1.623,1.6236,1.6264,1.6259,1.6272,1.6253,1.623,1.6227,1.6176,1.6209,1.6138,1.6182,1.6134,1.6138,1.6125,1.6128,1.6127,1.6048,1.6163,1.6356,1.6373,1.6127,1.6125,1.6123,0,1.6356,1.6367,1.6408,1.6402,1.6359,1.638,1.6364,1.6341,1.6344,1.634,1.6341,1.6343,1.6343,1.6346,1.6297,1.625,1.6347,1.6272,1.6328,1.633,1.6352,1.6351,1.6547,1.6358,1.6358,1.6358,1.6357,0,1.6509,1.6553,1.6474,1.65,1.6547,1.6483,1.6532,1.6507,1.6487,1.6506,1.6439,1.646,1.6395,1.6408,1.6371,1.6412,1.6414,1.6396,1.6385,1.6401,1.6403,1.6402,1.6392,1.6362,1.6361,1.6361,1.636,0,1.6684,1.6633,1.6672,1.6627,1.6616,1.6653,1.6614,1.6636,1.6603,1.6628,1.6631,1.6579,1.6591,1.6542,1.6548,1.6522,1.6583,1.6559,1.6588,1.658,1.6638,1.6633,1.684,1.6863,1.6662,1.6664,1.6666,0,1.6784,1.6815,1.6772,1.6778,1.6764,1.6777,1.6778,1.6717,1.6721,1.67,1.6725,1.6731,1.6732,1.6756,1.6719,1.6722,1.6697,1.677,1.6698,1.6711,1.6696,1.6694,1.6695,1.6784,1.6787,1.6789,1.6791,0,1.6965,1.6937,1.6941,1.6935,1.6938,1.6931,1.692,1.693,1.6864,1.6873,1.6882,1.6883,1.6886,1.6893,1.6888,1.6872,1.6821,1.6813,1.6826,1.6842,1.6856,1.6847,1.6627,1.6809,1.6807,1.6806,1.6805,1.6804,1.7103,1.7126,1.7098,1.7104,1.7088,1.7079,1.7096,1.7063,1.7069,1.7065,1.7029,1.7046,1.7024,1.7011,1.7,1.7013,1.6979,1.6999,1.7003,1.7008,1.7017,1.6855,1.7012,1.7012,1.7011,1.7011,1.701,0,1.7279,1.7256,1.7262,1.7246,1.7251,1.7199,1.7184,1.7191,1.7205,1.7189,1.719,1.7201,1.7206,1.7169,1.717,1.7187,1.7163,1.7189,1.7186,1.7183,1.7049,1.7036,1.7208,1.7208,1.7208,1.7208,1.7208,1.7208,1.737,1.7405,1.7375,1.7402,1.7379,1.7392,1.7387,1.7378,1.7364,1.7378,1.7381,1.7356,1.7331,1.7328,1.7331,1.732,1.7322,1.7356,1.7337,1.7212,1.7193,1.7175,1.7162,1.7358,1.7358,1.747,1.7471,1.7472]},{"header":{"parameterUnit":"m.s-1","parameterCategory":1,"la1":30.2991,"la2":30.254,"lo1":-89.0895,"lo2":-89.0444,"dy":0.0017,"dx":0.0017,"nx":28,"ny":28,"refTime":"2025-07-29T09:00:00:Z","depth":0,"parameterNumber":3,"parameterNumberName":"V-component_of_WINDS"},"data":[0,0,0,0,0,0,0,0,0,0,0,0,0,0,0,0,0,0,0,0,0,0,0,0,0,0,0,0,0,0,0,0,0,0,0,0,0,0,0,0,0,0,0,0,0,0,0,0,0,0,0,0,0,0,0,0,0,0,3.6096,3.6097,0,3.6191,3.6193,3.6194,3.6214,3.6213,3.6212,3.6212,3.63,3.6303,3.6306,0,0,0,0,0,0,0,0,0,0,0,0,0,3.5921,3.5924,3.6096,3.6097,3.6099,3.6191,3.6193,3.6194,3.6214,3.6213,3.6212,3.6212,3.6299,3.6302,3.6306,0,0,0,0,0,0,0,0,0,0,0,0,0,3.6005,3.5925,3.6096,3.612,3.6123,3.6191,3.6193,3.6194,3.6214,3.6213,3.6212,3.6211,3.6298,3.6302,3.6306,3.6354,0,0,3.632,3.6322,0,0,0,0,0,0,0,0,3.6,3.6011,3.6115,3.6118,3.6122,3.619,3.6163,3.6247,3.6214,3.6179,3.6212,3.6211,3.6263,3.6271,3.629,3.6358,3.6362,3.632,3.6323,3.6325,3.6326,0,0,0,0,0,0,0,3.5994,3.6007,3.6134,3.6117,3.6121,3.6122,3.6133,3.6179,3.6225,3.6182,3.6184,3.6196,3.6265,3.6286,3.6293,3.6363,3.632,3.6324,3.6327,3.6329,3.6472,3.6473,0,0,0,0,0,0,3.5985,3.6002,3.613,3.6136,3.6058,3.6127,3.6139,3.6169,3.6225,3.6233,3.6196,3.6196,3.6279,3.6287,3.6296,3.6354,3.6325,3.6329,3.6332,3.6471,3.6472,3.6474,0,0,0,0,0,0,3.5982,3.5997,3.6127,3.607,3.6087,3.6131,3.6165,3.6171,3.6193,3.6236,3.6243,3.621,3.6278,3.6289,3.634,3.6357,3.6331,3.6335,3.647,3.6471,3.6473,3.6471,0,0,0,0,0,0,3.5977,3.5995,3.6016,3.607,3.609,3.6172,3.6166,3.6174,3.6201,3.6202,3.6251,3.6258,3.6278,3.6333,3.6344,3.6363,3.6339,3.6468,3.647,3.6473,3.647,3.6473,3.6475,0,0,0,0,0,3.597,3.601,3.6017,3.6033,3.6117,3.6173,3.6184,3.621,3.6203,3.6223,3.625,3.6256,3.6354,3.6338,3.635,3.6371,3.6467,3.647,3.6472,3.6469,3.6472,3.6475,0,0,0,0,0,0,3.5954,3.6018,3.6026,3.6086,3.6124,3.6177,3.6202,3.6213,3.6251,3.625,3.6278,3.6288,3.6336,3.6359,3.634,3.6419,3.641,3.6415,3.6403,3.6406,3.6409,3.6402,3.6342,0,0,0,0,0,3.5958,3.6002,3.6054,3.6101,3.612,3.6158,3.6183,3.62,3.6239,3.6255,3.6286,3.6321,3.636,3.6384,3.6422,3.6474,3.6483,3.6494,3.6496,3.6498,3.6502,3.6529,3.6533,3.6482,3.6482,3.6482,0,0,3.5966,3.6006,3.6031,3.6099,3.613,3.6171,3.6171,3.6215,3.6244,3.626,3.631,3.6334,3.6375,3.6425,3.6449,3.6445,3.6518,3.6501,3.6503,3.6505,3.6532,3.6536,3.6541,3.6484,3.6484,3.6483,0,0,3.6,3.6036,3.6079,3.6111,3.6161,3.6185,3.6195,3.6246,3.6264,3.6315,3.6327,3.6361,3.6427,3.6456,3.6479,3.6523,3.6529,3.6534,3.6547,3.6573,3.6577,3.658,3.6594,3.6599,3.6538,3.6538,3.6538,0,3.6002,3.6068,3.6099,3.6142,3.617,3.619,3.6231,3.626,3.6317,3.6334,3.633,3.6413,3.6442,3.6499,3.651,3.6528,3.6538,3.6528,3.6574,3.6578,3.6582,3.6596,3.6601,3.6538,3.6538,3.6538,3.6538,0,3.6067,3.6112,3.614,3.6199,3.623,3.6272,3.6305,3.6332,3.6346,3.637,3.642,3.6456,3.6501,3.6515,3.6528,3.6573,3.6569,3.657,3.6561,3.6587,3.66,3.6605,3.6538,3.6538,3.6538,3.6538,0,0,3.6094,3.617,3.6179,3.6205,3.6261,3.6294,3.6335,3.6382,3.6404,3.6442,3.6475,3.6531,3.6532,3.6557,3.6573,3.6596,3.6627,3.6593,3.6594,3.6597,3.6676,3.6674,3.668,3.6631,3.6633,3.6633,3.6672,0,3.6134,3.6213,3.6241,3.6304,3.6344,3.6363,3.6398,3.6434,3.6457,3.6492,3.6516,3.6555,3.6554,3.6569,3.6593,3.6618,3.6642,3.6616,3.6659,3.6661,3.6648,3.6688,3.6687,3.6721,3.6677,3.6678,3.6679,0,3.6192,3.6234,3.6302,3.6352,3.6369,3.6402,3.6446,3.648,3.6519,3.6534,3.6564,3.6578,3.6618,3.6608,3.6662,3.6643,3.6662,3.6677,3.6679,3.6683,3.6671,3.6691,3.6733,3.6738,3.6688,3.6687,3.6686,0,3.6203,3.6276,3.6326,3.6348,3.6407,3.6429,3.6454,3.6493,3.6519,3.6556,3.6573,3.6613,3.6635,3.6665,3.6688,3.6679,3.6739,3.6731,3.675,3.675,3.6762,3.676,3.6806,3.6776,3.6776,3.6776,3.6776,0,3.6244,3.6284,3.6332,3.6363,3.6407,3.6438,3.648,3.6505,3.654,3.6573,3.659,3.662,3.665,3.6683,3.6701,3.6742,3.6752,3.6763,3.6767,3.6761,3.6759,3.6773,3.6771,3.6777,3.6777,3.6777,3.6776,0,3.6263,3.6297,3.6353,3.6405,3.6419,3.6449,3.6492,3.652,3.6545,3.6586,3.6597,3.6634,3.6674,3.6701,3.675,3.6763,3.6806,3.6811,3.6794,3.6796,3.6813,3.681,3.6868,3.6876,3.6842,3.6842,3.6843,0,3.6287,3.6319,3.6375,3.64,3.6426,3.6466,3.6493,3.6523,3.655,3.6597,3.6619,3.666,3.6695,3.6757,3.6786,3.6823,3.6828,3.6845,3.6833,3.6826,3.6826,3.6824,3.6826,3.6847,3.6847,3.6847,3.6847,0,3.6324,3.6339,3.638,3.6426,3.6459,3.6496,3.6532,3.6551,3.6586,3.6615,3.6658,3.6685,3.6737,3.6777,3.6817,3.6839,3.6848,3.6851,3.6857,3.6851,3.6839,3.6844,3.6798,3.6849,3.6849,3.6849,3.6849,3.6849,3.6345,3.6374,3.6418,3.6462,3.6493,3.6527,3.6556,3.6585,3.6622,3.6669,3.6684,3.6727,3.6763,3.6819,3.6842,3.6874,3.6872,3.6881,3.6883,3.6885,3.6884,3.6835,3.6881,3.6881,3.6881,3.6881,3.6881,0,3.6382,3.6412,3.6452,3.6504,3.6538,3.6547,3.6588,3.6614,3.6654,3.6688,3.6723,3.677,3.6809,3.6841,3.688,3.69,3.6905,3.6909,3.6907,3.6911,3.6884,3.6874,3.6904,3.6904,3.6904,3.6904,3.6904,3.6904,3.6405,3.6454,3.6475,3.6538,3.6566,3.6612,3.6634,3.6664,3.6692,3.6745,3.6779,3.6801,3.6833,3.6875,3.691,3.6918,3.6931,3.6934,3.6942,3.6916,3.6913,3.6911,3.6902,3.6937,3.6937,3.6967,3.6967,3.6967]}]]